Location: Estes P
(40.3770°N, 105.5210°W)
Time: 16:56:23
(UTC-07:00)

Envisat - Visible Passes

Search period start: 23 February 2018 00:00
Search period end: 05 March 2018 00:00
Orbit: 764 x 766 km, 98.2° (Epoch: 23 February)

Date Brightness Start Highest point End Pass type
(mag) Time Alt. Az. Time Alt. Az. Time Alt. Az.
23 Feb 3.2 19:00:28 10° SE 19:05:17 46° ENE 19:10:07 10° N visible
23 Feb 5.3 20:40:50 10° SW 20:44:30 20° W 20:48:12 10° NW visible
24 Feb 4.2 18:25:03 10° ESE 18:28:51 22° ENE 18:32:39 10° NNE visible
24 Feb 4.0 20:02:43 10° S 20:07:32 44° W 20:12:24 10° NNW visible
25 Feb 2.9 19:25:43 10° SSE 19:30:46 81° ENE 19:35:53 10° N visible
25 Feb 6.0 21:09:11 10° WSW 21:10:23 11° W 21:11:35 10° WNW visible
26 Feb 3.5 18:49:36 10° SE 18:54:12 36° ENE 18:58:50 10° N visible
26 Feb 5.0 20:29:08 10° SSW 20:33:16 25° W 20:37:27 10° NW visible
27 Feb 4.4 18:14:34 10° ESE 18:17:50 18° ENE 18:21:07 10° NNE visible
27 Feb 3.5 19:51:24 10° S 19:56:22 57° W 20:01:23 10° NNW visible
28 Feb 2.9 19:14:40 10° SSE 19:19:40 64° ENE 19:24:41 10° N visible
28 Feb 5.8 20:56:28 10° WSW 20:59:06 14° W 21:01:46 10° WNW visible
01 Mar 3.8 18:38:50 10° SE 18:43:09 29° ENE 18:47:30 10° N visible
01 Mar 4.6 20:17:34 10° SSW 20:22:04 32° W 20:26:35 10° NNW visible
02 Mar 3.1 19:40:10 10° S 19:45:13 73° WSW 19:50:18 10° NNW visible
03 Mar 3.1 19:03:41 10° SSE 19:08:34 50° ENE 19:13:28 10° N visible
03 Mar 5.5 20:44:26 10° SW 20:47:51 18° W 20:51:18 10° NW visible
04 Mar 4.1 18:28:08 10° ESE 18:32:07 24° ENE 18:36:05 10° NNE visible
04 Mar 4.2 20:06:08 10° SSW 20:10:52 40° W 20:15:39 10° NNW visible
